Weather History for Charlotte, NC

Change the Weather History Date:

Wednesday, February 8, 2012

  Actual Average Record
Temperature  
Mean Temperature 42 °F 42 °F  
Max Temperature 53 °F 54 °F 74 °F (2009)
Min Temperature 30 °F 31 °F 1 °F (1895)
Degree Days  
Heating Degree Days 23 23  
Month to date heating degree days 131 185  
Since 1 July heating degree days 1875 2292  
Cooling Degree Days 0 0  
Month to date cooling degree days 0 0  
Year to date cooling degree days 0 0  
Moisture  
Dew Point 33 °F    
Average Humidity 72    
Maximum Humidity 89    
Minimum Humidity 54    
Precipitation  
Precipitation T in 0.10 in 1.12 in (1896)
Month to date precipitation 0.46 0.87  
Year to date precipitation 2.74 4.28  
Snow  
Snow 0.00 in 0.10 in 0.20 in (1964)
Month to date snowfall 0.0 0.4  
Since 1 July snowfall 0.0 2.9  
Snow Depth 0.00 in    
Sea Level Pressure  
Sea Level Pressure 30.15 in    
Wind  
Wind Speed 4 mph (North)    
Max Wind Speed 14 mph    
Max Gust Speed 18 mph    
Visibility 10 miles    
Events Rain    
T = Trace of Precipitation, MM = Missing Value Source: NWS Daily Summary

Daily Weather History Graph

Daily Weather History Graph

Search for Another Location

Airport:

Trip Planner

Search our weather history database for the weather conditions in past years. The results will help you decide how hot, cold, wet, or windy it might be!

Date:

Astronomy

Feb. 08, 2012 Rise Set
Actual Time 7:17 AM EST 5:58 PM EST
Civil Twilight 6:51 AM EST 6:25 PM EST
Nautical Twilight 6:21 AM EST 6:55 PM EST
Astronomical Twilight 5:51 AM EST 7:24 PM EST
Moon 7:11 PM EST (2/8) 7:23 AM EST (2/8)
Length of Visible Light 11h 33m
Length of Day
10h 41m
Full, 99% of the Moon is Illuminated
Feb 8
Full
Feb 14
Last Quarter
Feb 21
New
Feb 29
First Quarter
Mar 8
Full

Hourly Weather History & Observations

Time (EST) Temp. Windchill Dew Point Humidity Pressure Visibility Wind Dir Wind Speed Gust Speed Precip Events Conditions
12:52 AM 32.0 °F - 28.0 °F 85% 30.17 in 10.0 mi Calm Calm - N/A   Clear
1:52 AM 39.0 °F 36.8 °F 30.0 °F 70% 30.15 in 10.0 mi SSE 3.5 mph - N/A   Clear
2:52 AM 33.1 °F - 28.9 °F 85% 30.16 in 10.0 mi Calm Calm - N/A   Partly Cloudy
3:52 AM 35.1 °F - 30.0 °F 82% 30.15 in 10.0 mi Calm Calm - N/A   Partly Cloudy
4:52 AM 35.1 °F - 32.0 °F 89% 30.13 in 10.0 mi Calm Calm - N/A   Mostly Cloudy
5:52 AM 39.9 °F - 30.9 °F 70% 30.12 in 10.0 mi Calm Calm - N/A   Mostly Cloudy
6:52 AM 36.0 °F 30.3 °F 32.0 °F 86% 30.15 in 10.0 mi NW 6.9 mph - N/A   Mostly Cloudy
7:52 AM 37.9 °F 33.5 °F 34.0 °F 86% 30.17 in 10.0 mi North 5.8 mph - N/A   Mostly Cloudy
8:52 AM 44.1 °F - 35.1 °F 71% 30.16 in 10.0 mi Calm Calm - 0.00 in   Overcast
9:52 AM 44.1 °F - 35.1 °F 71% 30.19 in 10.0 mi Calm Calm - N/A   Overcast
10:52 AM 44.6 °F 42.2 °F 37.4 °F 76% 30.18 in 10.0 mi WNW 4.6 mph - N/A Rain Light Rain
11:52 AM 46.0 °F 43.9 °F 36.0 °F 68% 30.18 in 10.0 mi North 4.6 mph - 0.00 in   Overcast
12:52 PM 48.9 °F - 35.1 °F 59% 30.16 in 10.0 mi NNW 5.8 mph - N/A   Overcast
1:52 PM 51.1 °F - 36.0 °F 56% 30.13 in 10.0 mi North 11.5 mph - N/A   Mostly Cloudy
2:52 PM 53.1 °F - 37.0 °F 55% 30.12 in 10.0 mi North 9.2 mph - N/A   Overcast
3:52 PM 52.0 °F - 35.1 °F 53% 30.12 in 10.0 mi NNE 5.8 mph - N/A   Scattered Clouds
4:52 PM 52.0 °F - 36.0 °F 54% 30.12 in 10.0 mi East 4.6 mph - N/A   Mostly Cloudy
5:52 PM 46.9 °F - 36.0 °F 66% 30.12 in 10.0 mi NNE 4.6 mph - N/A   Partly Cloudy
6:52 PM 45.0 °F 41.2 °F 35.1 °F 68% 30.16 in 10.0 mi North 6.9 mph - N/A   Scattered Clouds
7:52 PM 41.0 °F 38.0 °F 33.1 °F 73% 30.17 in 10.0 mi North 4.6 mph - N/A   Partly Cloudy
8:52 PM 43.0 °F 41.3 °F 30.9 °F 62% 30.16 in 10.0 mi NNW 3.5 mph - N/A   Clear
9:52 PM 41.0 °F 38.0 °F 30.0 °F 65% 30.18 in 10.0 mi NNW 4.6 mph - N/A   Clear
10:52 PM 37.9 °F 34.4 °F 28.9 °F 70% 30.19 in 10.0 mi North 4.6 mph - N/A   Clear
11:52 PM 37.9 °F 34.4 °F 28.0 °F 68% 30.19 in 10.0 mi NNW 4.6 mph - N/A   Clear